Find Starlink 31407

NORAD ID: 59250 Int'l Des: 2024-049 Owner: SPXS Country: US Constellation: starlink operational
LEOCIRCULAR

Current View

Loading 3D Globe...

About Starlink 31407

Starlink 31407 (NORAD 59250) is a starlink constellation satellite (v2 mini) launched Mar 16, 2024 by SPXS of US. It operates in LEO, CIRCULAR orbit with a mass of 730.00 kg.

About Starlink 31407

Description loading...

Upcoming Passes

Passes for default location (London). Set your location on the main map for personalized predictions.

Altitude History

Loading altitude history...

Two-Line Element Set

1 59250U 24049V 26178.52427223 .00005256 00000-0 20035-3 0 9992
2 59250 43.0009 232.0177 0000873 275.3866 84.6886 15.27587035129326
Epoch: Jun 27, 2026 • Age: 5 hours

Current Status

Altitude 483.0 km
Velocity 7.63 km/s
Sub-Earth Point -1.93°S, 53.85°E
Launch Date Mar 16, 2024
Age 2.2 years
Type internet

Technical Details

Classification Payload
Mass 730.00 kg
Dry Mass 700.00 kg
Total Mass 730.00 kg
Length 0.30 m
Diameter 4.10 m
Span 29.00 m
Shape Box + pan
Manufacturer SPXS
Bus Type Starlink V2M
Phase Status In Orbit
Owner/State SPXS/US

Most Searched